7 * 24
多渠道服务支持
STARLINK-34873是美国太空探索技术公司星链计划的卫星,于2025年8月27日发射,属于低轨通信卫星。星链计划旨在构建全球卫星互联网星座,该卫星入轨后,将与其他星链卫星协同,为全球偏远地区、海洋、天空等场景提供高速低延迟的互联网接入服务,拓展全球网络覆盖范围。
美国
(US)
| 数据来源 | 国际轨道数据 |
| 星历时间: | 2026-09-12T08:03:21+0800 1天前 查看轨道信息 |
| 半长轴: | 6840.822km |
| 偏心率: | 0.0001197 |
| 轨道倾角: | 53.159° |
| 近地点辐角 | 83.823° |
| 升交点赤经 | 59.099° |
| 平近点角 | 276.291° |
| 近地点: | 461.866km |
| 远地点: | 463.504km |
| 周期: | 93.847分钟 |
| 每日圈数: | 15.344062 |